Location: Newark
(33.6439°N, 114.9881°W)
Time: 22:20:55
(UTC+00:00)

A-11 Canister half - Pass Details

Date: 30 August 2019
Orbit: 1527 x 1682 km, 47.3° (Epoch: 22 September)

Event Time Altitude Azimuth Distance (km) Brightness Sun altitude
Rises 02:26:09 0° 292° (WNW) 4,935 14.2 -4.2°
Reaches altitude 10° 02:30:43 10° 275° (W) 3,936 12.9 -5.1°
Maximum altitude 02:36:45 18° 237° (WSW) 3,324 11.4 -6.4°
Drops below altitude 10° 02:42:45 10° 199° (SSW) 3,881 11.2 -7.6°
Sets 02:47:17 0° 182° (S) 4,839 11.5 -8.5°
